TimeCDT,TemperatureF,Dew PointF,Humidity,Sea Level PressureIn,VisibilityMPH,Wind Direction,Wind SpeedMPH,Gust SpeedMPH,PrecipitationIn,Events,Conditions,WindDirDegrees,DateUTC
12:55 AM,75.0,72.3,91,30.05,10.0,SSE,12.7,20.7,N/A,,Overcast,160,2012-04-16 05:55:00
1:54 AM,75.2,73.4,94,30.04,10.0,South,10.4,-,N/A,,Mostly Cloudy,170,2012-04-16 06:54:00
1:55 AM,74.7,72.5,93,30.04,10.0,South,11.5,-,N/A,,Mostly Cloudy,170,2012-04-16 06:55:00
2:00 AM,75.2,71.6,89,30.04,10.0,South,13.8,-,N/A,,Mostly Cloudy,170,2012-04-16 07:00:00
2:02 AM,75.2,71.6,89,30.04,10.0,South,11.5,-,N/A,,Mostly Cloudy,170,2012-04-16 07:02:00
2:05 AM,75.2,71.6,89,30.03,10.0,South,13.8,-,N/A,,Scattered Clouds,170,2012-04-16 07:05:00
2:25 AM,75.2,73.4,94,30.03,10.0,South,10.4,-,N/A,,Mostly Cloudy,170,2012-04-16 07:25:00
2:55 AM,74.8,73.4,95,30.03,10.0,South,9.2,-,N/A,,Mostly Cloudy,170,2012-04-16 07:55:00
2:58 AM,75.2,73.4,94,30.03,10.0,South,9.2,-,N/A,,Scattered Clouds,170,2012-04-16 07:58:00
3:28 AM,75.2,73.4,94,30.03,10.0,South,10.4,-,N/A,,Mostly Cloudy,170,2012-04-16 08:28:00
3:55 AM,75.2,73.0,93,30.03,10.0,South,11.5,-,N/A,,Overcast,170,2012-04-16 08:55:00
4:14 AM,75.2,73.4,94,30.03,10.0,South,12.7,18.4,N/A,,Overcast,170,2012-04-16 09:14:00
4:39 AM,75.2,73.4,94,30.04,10.0,South,10.4,-,N/A,,Overcast,170,2012-04-16 09:39:00
4:55 AM,74.7,71.1,88,30.04,10.0,South,12.7,-,N/A,,Overcast,180,2012-04-16 09:55:00
5:00 AM,75.2,69.8,83,30.05,10.0,South,10.4,-,N/A,,Overcast,180,2012-04-16 10:00:00
5:25 AM,75.2,69.8,83,30.06,10.0,South,6.9,-,N/A,,Overcast,190,2012-04-16 10:25:00
5:45 AM,75.2,69.8,83,30.06,10.0,South,9.2,-,N/A,,Overcast,190,2012-04-16 10:45:00
5:55 AM,74.3,70.7,88,30.07,10.0,South,8.1,-,N/A,,Mostly Cloudy,180,2012-04-16 10:55:00
6:55 AM,74.5,71.8,91,30.09,10.0,South,9.2,-,N/A,,Mostly Cloudy,180,2012-04-16 11:55:00
6:57 AM,75.2,71.6,89,30.09,10.0,South,9.2,-,N/A,,Mostly Cloudy,190,2012-04-16 11:57:00
7:04 AM,75.2,71.6,89,30.09,10.0,South,8.1,-,N/A,,Mostly Cloudy,190,2012-04-16 12:04:00
7:55 AM,76.3,71.4,85,30.12,10.0,South,9.2,-,N/A,,Clear,190,2012-04-16 12:55:00
8:55 AM,78.6,70.7,77,30.14,10.0,SSW,8.1,-,N/A,,Clear,200,2012-04-16 13:55:00
9:55 AM,79.0,71.2,77,30.16,10.0,SE,6.9,-,N/A,,Mostly Cloudy,140,2012-04-16 14:55:00
10:55 AM,80.2,70.7,73,30.17,10.0,South,10.4,-,N/A,,Mostly Cloudy,170,2012-04-16 15:55:00
11:55 AM,80.8,70.9,72,30.17,10.0,SSE,11.5,18.4,N/A,,Mostly Cloudy,150,2012-04-16 16:55:00
12:55 PM,80.1,70.9,73,30.14,10.0,SSE,12.7,-,N/A,,Scattered Clouds,150,2012-04-16 17:55:00
1:55 PM,79.5,70.3,73,30.13,10.0,South,13.8,-,N/A,,Partly Cloudy,170,2012-04-16 18:55:00
2:55 PM,80.6,69.6,69,30.11,10.0,SSE,12.7,-,N/A,,Clear,160,2012-04-16 19:55:00
3:55 PM,78.8,69.3,72,30.11,10.0,South,12.7,-,N/A,Thunderstorm,Partly Cloudy,170,2012-04-16 20:55:00
4:55 PM,78.3,68.7,72,30.11,10.0,South,11.5,-,N/A,,Mostly Cloudy,170,2012-04-16 21:55:00
5:55 PM,77.7,69.3,75,30.11,10.0,South,10.4,-,N/A,,Partly Cloudy,170,2012-04-16 22:55:00
6:55 PM,76.6,68.2,75,30.11,10.0,SSE,6.9,-,N/A,,Clear,160,2012-04-16 23:55:00
7:55 PM,75.9,68.0,76,30.13,10.0,ESE,4.6,-,N/A,,Scattered Clouds,110,2012-04-17 00:55:00
8:55 PM,75.7,68.0,77,30.15,10.0,ESE,6.9,-,N/A,,Mostly Cloudy,120,2012-04-17 01:55:00
8:56 PM,75.2,68.0,78,30.15,10.0,ESE,6.9,-,N/A,,Mostly Cloudy,110,2012-04-17 01:56:00
9:07 PM,75.2,68.0,78,30.14,10.0,ESE,8.1,-,N/A,,Mostly Cloudy,120,2012-04-17 02:07:00
9:09 PM,75.2,68.0,78,30.14,10.0,ESE,9.2,-,N/A,,Mostly Cloudy,120,2012-04-17 02:09:00
9:36 PM,75.2,68.0,78,30.14,10.0,SE,5.8,-,N/A,,Scattered Clouds,130,2012-04-17 02:36:00
9:42 PM,75.2,68.0,78,30.14,10.0,ESE,10.4,-,N/A,,Mostly Cloudy,120,2012-04-17 02:42:00
9:55 PM,75.2,68.7,80,30.14,10.0,SE,8.1,-,N/A,,Mostly Cloudy,130,2012-04-17 02:55:00
9:57 PM,75.2,68.0,78,30.13,10.0,SE,9.2,-,N/A,,Mostly Cloudy,130,2012-04-17 02:57:00
10:00 PM,75.2,68.0,78,30.14,10.0,SE,6.9,-,N/A,,Scattered Clouds,140,2012-04-17 03:00:00
10:05 PM,75.2,68.0,78,30.14,10.0,SE,5.8,-,N/A,,Mostly Cloudy,130,2012-04-17 03:05:00
10:07 PM,75.2,68.0,78,30.13,10.0,SE,9.2,-,N/A,,Mostly Cloudy,130,2012-04-17 03:07:00
10:22 PM,75.2,69.8,83,30.14,10.0,SE,8.1,-,N/A,,Mostly Cloudy,140,2012-04-17 03:22:00
10:27 PM,75.2,69.8,83,30.14,10.0,SE,9.2,-,N/A,,Scattered Clouds,140,2012-04-17 03:27:00
10:31 PM,75.2,68.0,78,30.14,10.0,SE,9.2,-,N/A,,Mostly Cloudy,140,2012-04-17 03:31:00
10:33 PM,75.2,68.0,78,30.14,10.0,SE,9.2,-,N/A,,Scattered Clouds,130,2012-04-17 03:33:00
10:55 PM,74.7,68.7,82,30.13,10.0,SE,8.1,-,N/A,,Partly Cloudy,140,2012-04-17 03:55:00
11:55 PM,74.5,69.1,83,30.13,10.0,SE,9.2,-,N/A,,Scattered Clouds,140,2012-04-17 04:55:00